Location: Kumla
(59.1265°N, 15.1401°E)
Time: 21:28:59
(UTC+01:00)

Vanguard 1 - Pass Details

Date: 09 December 2023
Orbit: 653 x 3825 km, 34.3° (Epoch: 04 March)

Event Time Altitude Azimuth Distance (km) Brightness Sun altitude
Rises 19:13:28 0° 242° (WSW) 5,975 14.9 -29.9°
Reaches altitude 10° 19:17:34 10° 233° (SW) 5,379 14.3 -30.4°
Maximum altitude 19:31:33 31° 179° (S) 4,861 13.4 -32.2°
Enters shadow 19:40:51 24° 146° (SE) 5,719 13.5 -33.4°
